This is the latest recevied weather packets stored in our database for station/object WL7CLI. If no packets are shown the sender has not sent any weather packets the latest 10 day(s).
| Time | Temp. | Humidity | Pressure | Rain* | Wind** | Luminosity | Snow |
|---|---|---|---|---|---|---|---|
| 1777552354 | 9.44° C | 78% | 1016.9 hPa | 0.51 mm | - | - | - |
| 1777552144 | 9.44° C | 77% | 1017.2 hPa | 0.25 mm | - | - | - |
| 1777552104 | 9.44° C | 78% | 1016.9 hPa | 0.51 mm | - | - | - |
| 1777551897 | 9.44° C | 77% | 1017.2 hPa | 0.25 mm | - | - | - |
| 1777551372 | 9.44° C | 73% | 1017.2 hPa | 0 mm | - | - | - |
| 1777550697 | 9.44° C | 71% | 1016.9 hPa | 0 mm | - | - | - |
| 1777550304 | 9.44° C | 71% | 1016.6 hPa | 0 mm | - | - | - |
| 1777550172 | 9.44° C | 71% | 1016.9 hPa | 0 mm | - | - | - |
| 1777549496 | 9.44° C | 70% | 1016.9 hPa | 0 mm | - | - | - |
| 1777548971 | 9.44° C | 68% | 1017.1 hPa | 0 mm | - | - | - |
| 1777548504 | 9.44° C | 67% | 1016.7 hPa | 0 mm | - | - | - |
| 1777548298 | 9.44° C | 68% | 1017 hPa | 0 mm | - | - | - |
| 1777547772 | 9.44° C | 69% | 1017.1 hPa | 0 mm | - | - | - |
| 1777547096 | 10° C | 67% | 1016.8 hPa | 0 mm | - | - | - |
| 1777546955 | 10° C | 66% | 1016.6 hPa | 0 mm | - | - | - |
| 1777546704 | 10° C | 66% | 1016.6 hPa | 0 mm | - | - | - |
| 1777546571 | 10° C | 67% | 1016.9 hPa | 0 mm | - | - | - |
| 1777545897 | 10° C | 65% | 1016.8 hPa | 0 mm | - | - | - |
| 1777545373 | 10° C | 63% | 1016.8 hPa | 0 mm | - | - | - |
| 1777544948 | 10° C | 64% | 1016.9 hPa | 0 mm | - | - | - |
| 1777544919 | 10° C | 64% | 1016.7 hPa | 0 mm | - | - | - |
| 1777544696 | 10° C | 64% | 1016.9 hPa | 0 mm | - | - | - |
| 1777544171 | 10° C | 65% | 1016.9 hPa | 0 mm | - | - | - |
| 1777543496 | 10° C | 65% | 1016.9 hPa | 0 mm | - | - | - |
| 1777543355 | 10° C | 67% | 1016.8 hPa | 0 mm | - | - | - |
* Rain latest hour (hover to see other rain measurements)
** Current wind speed in m/s (hover to see current wind gust speed)